Tracking 19280 objects as of 13-Nov-2018
HD Live streaming from Space Station
objects crossing your sky now

WESTAR 5

Track WESTAR 5 now!
WESTAR 5 is classified as:


NORAD ID: 13269
Int'l Code: 1982-058A
Perigee: 36,019.5 km
Apogee: 36,166.8 km
Inclination: 15.3 °
Period: 1,451.4 minutes
Semi major axis: 42464 km
RCS: 3.0486 m2 (large)
Launch date: June 9, 1982
Source: United States (US)
Launch site: AIR FORCE EASTERN TEST RANGE (AFETR)
aabbcc
Your satellite tracking list
Your tracking list is empty




NASA's NSSDC Master Catalog

Two Line Element Set (TLE):
1 13269U 82058A   18316.83373626 -.00000134 +00000-0 +00000-0 0  9990
2 13269 015.3455 359.9844 0017340 219.3908 233.8093 00.99213222092026
Source of the keplerian elements: AFSPC